Location: Abraham Lincoln Continuation High School
(33.9711°N, 117.3662°W)
Time: 10:25:06
(UTC+00:00)

Cosmos 1934 Rocket - Visible Passes

Search period start: 20 June 2021 00:00
Search period end: 30 June 2021 00:00
Orbit: 937 x 1000 km, 83.0° (Epoch: 19 June)

Date Brightness Start Highest point End Pass type
(mag) Time Alt. Az. Time Alt. Az. Time Alt. Az.
20 Jun 4.7 04:13:19 10° NNW 04:19:15 54° W 04:25:17 10° SSW visible
21 Jun 5.7 04:37:12 10° NNW 04:42:22 29° W 04:47:36 10° SW visible
22 Jun 6.5 05:01:57 10° NW 05:05:21 15° W 05:08:48 10° WSW visible
23 Jun 4.3 03:37:57 10° N 03:44:05 73° W 03:50:18 10° S visible
24 Jun 5.3 04:01:37 10° NNW 04:07:16 39° W 04:12:59 10° SSW visible
25 Jun 6.3 04:25:50 10° NW 04:30:19 21° W 04:34:49 10° SW visible
26 Jun 6.9 04:52:02 10° WNW 04:53:12 11° W 04:54:23 10° W visible
27 Jun 4.9 03:26:08 10° NNW 03:32:07 53° W 03:38:11 10° SSW visible
28 Jun 6.0 03:50:02 10° NNW 03:55:14 29° W 04:00:29 10° SW visible
29 Jun 6.6 04:14:48 10° NW 04:18:12 15° W 04:21:38 10° WSW visible
